This is the latest recevied weather packets stored in our database for station/object GBTWP-2. If no packets are shown the sender has not sent any weather packets the latest 10 day(s).
| Time | Temp. | Humidity | Pressure | Rain* | Wind** | Luminosity | Snow |
|---|---|---|---|---|---|---|---|
| 1788373619 | 32.78° C | 63% | 1016.6 hPa | 0 mm | - | 507 W/m² | - |
| 1788373318 | 33.33° C | 61% | 1016.4 hPa | 0 mm | - | 497 W/m² | - |
| 1788373020 | 32.78° C | 62% | 1016.5 hPa | 0 mm | - | 607 W/m² | - |
| 1788372720 | 33.33° C | 61% | 1016.7 hPa | 0 mm | - | 456 W/m² | - |
| 1788372442 | 33.33° C | 63% | 1016.4 hPa | 0 mm | - | 613 W/m² | - |
| 1788372120 | 32.78° C | 62% | 1016.5 hPa | 0 mm | - | 549 W/m² | - |
| 1788371821 | 32.78° C | 60% | 1016.5 hPa | 0 mm | - | 219 W/m² | - |
| 1788371519 | 32.78° C | 61% | 1016.7 hPa | 0 mm | - | 410 W/m² | - |
| 1788371221 | 33.33° C | 61% | 1016.6 hPa | 0 mm | - | 217 W/m² | - |
| 1788370919 | 32.78° C | 61% | 1016.7 hPa | 0 mm | - | 359 W/m² | - |
| 1788370620 | 32.78° C | 60% | 1016.8 hPa | 0 mm | - | 152 W/m² | - |
| 1788370319 | 32.78° C | 63% | 1017 hPa | 0 mm | - | 118 W/m² | - |
| 1788370019 | 32.22° C | 64% | 1016.9 hPa | 0 mm | - | 112 W/m² | - |
| 1788369719 | 32.22° C | 64% | 1016.8 hPa | 0 mm | - | 417 W/m² | - |
| 1788369420 | 32.22° C | 66% | 1016.8 hPa | 0 mm | - | 569 W/m² | - |
| 1788369119 | 31.67° C | 66% | 1016.8 hPa | 0 mm | - | 554 W/m² | - |
| 1788368819 | 31.67° C | 67% | 1017 hPa | 0 mm | - | 339 W/m² | - |
| 1788368520 | 31.67° C | 66% | 1017.2 hPa | 0 mm | - | 337 W/m² | - |
| 1788368220 | 31.67° C | 65% | 1017.3 hPa | 0 mm | - | 385 W/m² | - |
| 1788367919 | 32.22° C | 65% | 1017.4 hPa | 0 mm | - | 592 W/m² | - |
| 1788367620 | 32.22° C | 64% | 1017.4 hPa | 0 mm | - | 585 W/m² | - |
| 1788367321 | 32.22° C | 65% | 1017.4 hPa | 0 mm | - | 521 W/m² | - |
| 1788367019 | 31.67° C | 67% | 1017.6 hPa | 0 mm | - | 556 W/m² | - |
| 1788366719 | 31.67° C | 66% | 1017.8 hPa | 0 mm | - | 528 W/m² | - |
| 1788366420 | 31.11° C | 67% | 1017.7 hPa | 0 mm | - | 286 W/m² | - |
* Rain latest hour (hover to see other rain measurements)
** Current wind speed in m/s (hover to see current wind gust speed)